This demonstration page uses our WeatherBlox Daily Observations layout. Learn more.

40.92945, -100.16068

Hourly Observations for January 8, 2020

Temp ( °F °C ) Dew Point ( °F °C ) Humidity (%) Winds ( mph kmh ) Pressure ( in mb ) Visibility ( mi km ) Precip ( " mm )
12:15 am 00:15 Clear 30 -0.9 26 -3.1 85 85 ESE 7 11 30.27 1025 10 16.0934 0 0
12:35 am 00:35 Clear 30 -1.2 26 -3.1 87 87 ESE 10 17 30.26 1025 10 16.0934 0 0
12:55 am 00:55 Clear 29 -1.6 26 -3.3 88 88 E 9 15 30.25 1024 10 16.0934 0 0
1:15 am 01:15 Clear 28 -2 26 -3.5 90 90 E 10 17 30.27 1025 10 16.0934 0 0
1:35 am 01:35 Clear 28 -2.5 26 -3.6 92 92 E 13 20 30.26 1025 10 16.0934 0 0
1:55 am 01:55 Clear 27 -2.8 25 -3.8 93 93 E 9 15 30.27 1025 10 16.0934 0 0
2:15 am 02:15 Clear 27 -3 25 -4 93 93 E 10 17 30.26 1025 10 16.0934 0 0
2:35 am 02:35 Clear 26 -3.2 25 -4.1 94 94 E 9 15 30.26 1025 10 16.0934 0 0
2:55 am 02:55 Clear 26 -3.5 24 -4.2 95 95 E 9 15 30.25 1024 10 16.0934 0 0
3:15 am 03:15 Clear 26 -3.6 24 -4.4 94 94 E 8 13 30.25 1025 10 16.0934 0 0
3:35 am 03:35 Partly Cloudy 25 -3.9 24 -4.5 96 96 E 9 15 30.25 1024 10 16.0934 0 0
3:55 am 03:55 Partly Cloudy 25 -4 24 -4.6 96 96 ESE 10 17 30.25 1024 10 16.0934 0 0
4:15 am 04:15 Clear 25 -4 23 -4.8 94 94 ESE 9 15 30.24 1024 10 16.0934 0 0
4:35 am 04:35 Clear 24 -4.2 23 -5 94 94 E 10 17 30.23 1024 10 16.0934 0 0
4:55 am 04:55 Mostly Cloudy 24 -4.2 23 -5 94 94 ESE 12 19 30.23 1024 10 16.0934 0 0
5:15 am 05:15 Cloudy 24 -4.2 23 -4.9 95 95 E 10 17 30.23 1024 10 16.0934 0 0
5:35 am 05:35 Cloudy 25 -4 24 -4.6 96 96 ESE 12 19 30.22 1023 10 16.0934 0 0
5:55 am 05:55 Cloudy 25 -4 24 -4.5 96 96 ESE 12 19 30.21 1023 10 16.0934 0 0
6:15 am 06:15 Cloudy 25 -4 24 -4.6 96 96 ESE 16 26 30.2 1023 10 16.0934 0 0
6:35 am 06:35 Mostly Cloudy 24 -4.2 23 -5.1 94 94 ESE 16 26 30.19 1022 10 16.0934 0 0
6:55 am 06:55 Partly Cloudy 24 -4.5 22 -5.5 93 93 ESE 16 26 30.17 1022 10 16.0934 0 0
7:15 am 07:15 Clear 24 -4.5 22 -5.8 91 91 ESE 15 24 30.17 1022 10 16.0934 0 0
7:35 am 07:35 Clear 24 -4.6 21 -6 90 90 ESE 13 20 30.17 1022 10 16.0934 0 0
7:55 am 07:55 Clear 24 -4.7 21 -6 91 91 ESE 12 19 30.16 1021 10 16.0934 0 0
8:15 am 08:15 Sunny 23 -4.8 21 -6.1 91 91 SE 9 15 30.17 1022 10 16.0934 0 0
8:35 am 08:35 Sunny 23 -5 21 -6.1 92 92 SE 10 17 30.16 1021 10 16.0934 0 0
8:55 am 08:55 Sunny 24 -4.6 21 -6 90 90 ESE 13 20 30.14 1021 10 16.0934 0 0
9:15 am 09:15 Sunny 25 -4 22 -5.7 88 88 SE 13 20 30.13 1020 10 16.0934 0 0
9:35 am 09:35 Sunny 26 -3.6 22 -5.3 88 88 SE 14 22 30.1 1019 10 16.0934 0 0
9:55 am 09:55 Sunny 26 -3.1 23 -5 87 87 SE 16 26 30.1 1019 10 16.0934 0 0
10:15 am 10:15 Sunny 27 -2.8 24 -4.6 88 88 SE 15 24 30.08 1019 10 16.0934 0 0
10:35 am 10:35 Partly Cloudy 28 -2.5 24 -4.2 88 88 SE 15 24 30.07 1018 10 16.0934 0 0
10:55 am 10:55 Sunny 29 -1.8 25 -3.8 86 86 SE 17 28 30.03 1017 10 16.0934 0 0
11:15 am 11:15 Sunny 29 -1.4 26 -3.5 86 86 SE 17 28 30.02 1017 10 16.0934 0 0
11:35 am 11:35 Sunny 31 -0.5 27 -2.8 85 85 SE 17 28 29.99 1016 10 16.0934 0 0
11:55 am 11:55 Partly Cloudy 32 -0.1 27 -2.6 83 83 SE 12 19 29.98 1015 10 16.0934 0 0
12:15 pm 12:15 Partly Cloudy 32 0 28 -2.5 83 83 SE 14 22 29.96 1014 10 16.0934 0 0
12:35 pm 12:35 Partly Cloudy 33 0.4 28 -2.2 83 83 ESE 15 24 29.93 1014 10 16.0934 0 0
12:55 pm 12:55 Partly Cloudy 34 1 28 -2 81 81 SE 13 20 29.91 1013 10 16.0934 0 0
1:15 pm 13:15 Partly Cloudy 35 1.4 29 -1.9 79 79 SE 15 24 29.88 1012 10 16.0934 0 0
1:35 pm 13:35 Sunny 34 1.3 29 -1.7 81 81 ESE 12 19 29.86 1011 10 16.0934 0 0
1:55 pm 13:55 Sunny 35 1.8 29 -1.4 80 80 SE 16 26 29.84 1010 10 16.0934 0 0
2:15 pm 14:15 Sunny 35 1.9 30 -1.1 81 81 ESE 10 17 29.82 1010 10 16.0934 0 0
2:35 pm 14:35 Sunny 36 2.2 30 -1.1 79 79 SE 13 20 29.81 1010 10 16.0934 0 0
2:55 pm 14:55 Sunny 37 2.7 30 -1.1 76 76 SE 10 17 29.8 1009 10 16.0934 0 0
3:15 pm 15:15 Sunny 38 3.2 28 -2.3 68 68 SE 15 24 29.79 1009 10 16.0934 0 0
3:35 pm 15:35 Sunny 38 3.1 28 -2.3 68 68 SSE 13 20 29.8 1009 10 16.0934 0 0
3:55 pm 15:55 Sunny 38 3.1 28 -2.1 69 69 SSE 12 19 29.8 1009 10 16.0934 0 0
4:15 pm 16:15 Sunny 37 3 28 -2 70 70 SSE 9 15 29.8 1009 10 16.0934 0 0
4:35 pm 16:35 Sunny 38 3.2 28 -2 69 69 SE 9 15 29.77 1008 10 16.0934 0 0
4:55 pm 16:55 Sunny 37 2.7 29 -1.6 74 74 ESE 9 15 29.77 1008 10 16.0934 0 0
5:15 pm 17:15 Sunny 36 2.1 29 -1.5 77 77 ESE 9 15 29.77 1008 10 16.0934 0 0
5:35 pm 17:35 Clear 36 2 29 -1.5 78 78 ESE 8 13 29.75 1007 10 16.0934 0 0
5:55 pm 17:55 Clear 35 1.7 29 -1.6 79 79 ESE 10 17 29.74 1007 10 16.0934 0 0
6:15 pm 18:15 Clear 35 1.5 29 -1.6 80 80 E 9 15 29.74 1007 10 16.0934 0 0
6:35 pm 18:35 Clear 34 1.1 29 -1.6 82 82 E 7 11 29.75 1007 10 16.0934 0 0
6:55 pm 18:55 Clear 34 1.1 29 -1.6 82 82 E 8 13 29.73 1007 10 16.0934 0 0
7:15 pm 19:15 Clear 34 0.9 29 -1.7 83 83 E 5 7 29.73 1007 10 16.0934 0 0
7:35 pm 19:35 Clear 33 0.5 29 -1.7 85 85 ESE 7 11 29.72 1006 10 16.0934 0 0
7:55 pm 19:55 Clear 33 0.7 29 -1.7 84 84 ESE 8 13 29.71 1006 10 16.0934 0 0
8:15 pm 20:15 Clear 34 1.2 29 -1.8 81 81 SE 7 11 29.69 1006 10 16.0934 0 0
8:35 pm 20:35 Clear 33 0.7 28 -2 82 82 ESE 6 9 29.69 1005 10 16.0934 0 0
8:55 pm 20:55 Clear 32 0 28 -2.1 86 86 SE 6 9 29.69 1005 10 16.0934 0 0
9:15 pm 21:15 Clear 33 0.3 28 -2 85 85 ESE 7 11 29.66 1004 10 16.0934 0 0
9:35 pm 21:35 Clear 32 0 28 -2.1 86 86 E 5 7 29.67 1005 10 16.0934 0 0
9:55 pm 21:55 Clear 31 -0.6 28 -2 90 90 N 6 9 29.67 1005 10 16.0934 0 0
10:15 pm 22:15 Clear 31 -0.5 28 -2.1 89 89 NNE 6 9 29.66 1004 10 16.0934 0 0
10:35 pm 22:35 Clear 32 -0.2 28 -2.3 86 86 E 3 6 29.65 1004 10 16.0934 0 0
10:55 pm 22:55 Clear 31 -0.3 28 -2.1 88 88 NNE 6 9 29.65 1004 10 16.0934 0 0
11:15 pm 23:15 Clear 32 0 28 -2.3 85 85 ENE 7 11 29.64 1004 10 16.0934 0 0
11:35 pm 23:35 Clear 31 -0.6 28 -2.5 87 87 N 7 11 29.65 1004 10 16.0934 0 0
11:55 pm 23:55 Clear 31 -0.7 27 -2.7 87 87 WNW 5 7 29.66 1004 10 16.0934 0 0

Powered by AerisWeather